Latest Coastal Weather Observations for Dum In Mirrie

IDD60701

Issued at 7:01 am CST Sunday 22 September 2019 (issued every 10 minutes, with the page automatically refreshed every 10 minutes)

About coastal observations | Map of coastal stations | Coastal observations for NT | Marine services | Other Formats
Station Details ID: 014277 Name: DUM IN MIRRIE AIRSTRIP Lat: -12.63 Lon: 130.37 Height: 3.5 m
Data from the previous 72 hours. | See also: Recent months at Dum In Mirrie
Date/Time
CST
Wind Sea
Height
m
Swell Vis
km
Cloud Weather Temp
°C
Press
hPa
Rain since
9am
mm
Dir  Spd
kts
Gust
kts
Height
m
Period
s
Dir
22/06:30am NE 2 3 - - - - - - - 24.0 1015.0 0.0
22/06:00am NE 2 4 - - - - - - - 24.6 1014.8 0.0
22/05:30am NE 3 5 - - - - - - - 24.9 1014.5 0.0
22/05:00am NNE 2 4 - - - - - - - 24.6 1014.0 0.0
22/04:30am NE 2 3 - - - - - - - 24.2 1013.6 0.0
22/04:00am NE 1 3 - - - - - - - 22.7 1013.4 0.0
22/03:30am CALM 0 0 - - - - - - - 23.5 1013.2 0.0
22/03:00am NNE 1 2 - - - - - - - 24.6 1013.3 0.0
22/02:30am N 1 4 - - - - - - - 24.8 1013.5 0.0
22/02:00am N 2 3 - - - - - - - 25.2 1013.7 0.0
22/01:30am NNW 2 5 - - - - - - - 25.4 1013.8 0.0
22/01:00am NNW 3 6 - - - - - - - 25.6 1013.8 0.0
22/12:30am NNW 4 7 - - - - - - - 25.5 1013.8 0.0
22/12:00am NNW 3 7 - - - - - - - 25.6 1014.0 0.0
 
Date/Time
CST
Wind Sea
Height
m
Swell Vis
km
Cloud Weather Temp
°C
Press
hPa
Rain since
9am
mm
Dir  Spd
kts
Gust
kts
Height
m
Period
s
Dir
21/11:30pm NNW 4 7 - - - - - - - 25.8 1013.9 0.0
21/11:00pm NNW 3 7 - - - - - - - 25.9 1014.0 0.0
21/10:30pm NW 3 5 - - - - - - - 26.1 1013.9 0.0
21/10:00pm NW 2 4 - - - - - - - 26.1 1013.9 0.0
21/09:30pm WNW 3 4 - - - - - - - 26.1 1013.7 0.0
21/09:00pm WNW 2 5 - - - - - - - 26.1 1013.4 0.0
21/08:30pm WNW 2 5 - - - - - - - 26.2 1013.3 0.0
21/08:00pm W 3 5 - - - - - - - 26.2 1013.2 0.0
21/07:30pm W 2 4 - - - - - - - 26.3 1013.0 0.0
21/07:00pm WNW 2 5 - - - - - - - 26.4 1012.8 0.0
21/06:30pm W 3 5 - - - - - - - 26.9 1012.7 0.0
21/06:00pm W 3 6 - - - - - - - 27.6 1012.5 0.0
21/05:30pm W 4 7 - - - - - - - 28.2 1012.5 0.0
21/05:00pm W 4 8 - - - - - - - 29.0 1012.4 0.0
21/04:30pm WNW 5 9 - - - - - - - 28.8 1012.3 0.0
21/04:00pm NW 5 8 - - - - - - - 29.1 1012.3 0.0
21/03:30pm NNW 5 9 - - - - - - - 29.0 1012.2 0.0
21/03:00pm NNW 5 10 - - - - - - - 29.8 1012.3 0.0
21/02:30pm NW 5 9 - - - - - - - 29.4 1012.6 0.0
21/02:00pm NNW 7 10 - - - - - - - 29.3 1012.9 0.0
21/01:30pm NNW 6 10 - - - - - - - 29.1 1013.3 0.0
21/01:00pm NNW 6 11 - - - - - - - 29.1 1013.8 0.0
21/12:30pm NNW 6 10 - - - - - - - 28.8 1014.2 0.0
21/12:00pm NNW 6 10 - - - - - - - 28.6 1014.5 0.0
21/11:30am N 6 9 - - - - - - - 28.9 1015.2 0.0
21/11:00am NNE 6 10 - - - - - - - 29.6 1015.1 0.0
21/10:30am NE 6 10 - - - - - - - 28.6 1015.3 0.0
21/10:00am ENE 6 9 - - - - - - - 28.4 1015.5 0.0
21/09:30am ENE 5 10 - - - - - - - 28.4 1015.4 0.0
21/09:00am NE 4 9 - - - - - - - 27.7 1015.4 0.0
21/08:30am NE 4 8 - - - - - - - 26.9 1015.2 0.0
21/08:00am NNE 4 8 - - - - - - - 26.1 1014.9 0.0
21/07:30am NE 2 4 - - - - - - - 24.6 1014.7 0.0
21/07:00am NE 2 4 - - - - - - - 22.9 1014.2 0.0
21/06:30am CALM 0 0 - - - - - - - 22.6 1013.8 0.0
21/06:00am CALM 0 0 - - - - - - - 22.6 1013.5 0.0
21/05:30am CALM 0 1 - - - - - - - 23.2 1013.1 0.0
21/05:00am CALM 0 1 - - - - - - - 22.4 1012.8 0.0
21/04:30am CALM 0 1 - - - - - - - 22.6 1012.3 0.0
21/04:00am N 2 3 - - - - - - - 21.4 1012.1 0.0
21/03:30am NW 1 2 - - - - - - - 21.8 1011.8 0.0
21/03:00am CALM 0 2 - - - - - - - 23.1 1011.7 0.0
21/02:30am NW 2 4 - - - - - - - 24.4 1011.7 0.0
21/02:00am NW 3 6 - - - - - - - 24.7 1012.0 0.0
21/01:30am NW 3 6 - - - - - - - 24.9 1012.3 0.0
21/01:00am NW 3 7 - - - - - - - 25.1 1012.6 0.0
21/12:30am WNW 3 6 - - - - - - - 25.4 1012.8 0.0
21/12:00am WNW 3 6 - - - - - - - 25.4 1013.3 0.0
 
Date/Time
CST
Wind Sea
Height
m
Swell Vis
km
Cloud Weather Temp
°C
Press
hPa
Rain since
9am
mm
Dir  Spd
kts
Gust
kts
Height
m
Period
s
Dir
20/11:30pm WNW 3 5 - - - - - - - 25.5 1013.4 0.0
20/11:00pm WNW 4 7 - - - - - - - 25.5 1013.5 0.0
20/10:30pm WNW 4 7 - - - - - - - 25.7 1013.4 0.0
20/10:00pm WNW 4 6 - - - - - - - 25.7 1013.5 0.0
20/09:30pm WNW 3 7 - - - - - - - 25.8 1013.4 0.0
20/09:00pm WNW 4 6 - - - - - - - 25.8 1013.2 0.0
20/08:30pm WNW 3 6 - - - - - - - 25.9 1013.0 0.0
20/08:00pm W 3 5 - - - - - - - 26.0 1012.8 0.0
20/07:30pm W 3 5 - - - - - - - 26.1 1012.5 0.0
20/07:00pm W 3 6 - - - - - - - 26.4 1012.3 0.0
20/06:30pm W 4 8 - - - - - - - 26.7 1012.1 0.0
20/06:00pm W 4 7 - - - - - - - 27.7 1012.0 0.0
20/05:30pm W 4 7 - - - - - - - 28.5 1011.7 0.0
20/05:00pm W 5 8 - - - - - - - 28.8 1011.5 0.0
20/04:30pm W 6 9 - - - - - - - 29.2 1011.5 0.0
20/04:00pm W 6 12 - - - - - - - 29.6 1011.4 0.0
20/03:30pm WNW 5 11 - - - - - - - 29.8 1011.5 0.0
20/03:00pm NW 5 9 - - - - - - - 29.6 1012.0 0.0
20/02:30pm WNW 6 10 - - - - - - - 29.9 1012.2 0.0
20/02:00pm WNW 7 11 - - - - - - - 29.4 1012.7 0.0
20/01:30pm WNW 5 9 - - - - - - - 29.3 1013.1 0.0
20/01:00pm WNW 6 9 - - - - - - - 30.0 1013.6 0.0
20/12:30pm W 6 9 - - - - - - - 28.9 1014.1 0.0
20/12:00pm WSW 6 8 - - - - - - - 28.8 1014.7 0.0
20/11:30am WSW 5 7 - - - - - - - 28.3 1015.1 0.0
20/11:00am W 5 8 - - - - - - - 28.5 1015.4 0.0
20/10:30am WSW 4 6 - - - - - - - 28.6 1015.5 0.0
20/10:00am WSW 3 5 - - - - - - - 27.7 1015.7 0.0
20/09:30am WSW 2 5 - - - - - - - 27.8 1015.6 0.0
20/09:00am SSE 2 4 - - - - - - - 26.9 1015.7 0.0
20/08:30am ESE 2 3 - - - - - - - 26.3 1015.4 0.0
20/08:00am ESE 2 4 - - - - - - - 25.6 1015.3 0.0
20/07:30am CALM 0 0 - - - - - - - 24.6 1014.9 0.0
20/07:00am CALM 0 2 - - - - - - - 22.4 1014.5 0.0
20/06:30am NW 1 4 - - - - - - - 23.0 1014.3 0.0
20/06:00am NW 1 3 - - - - - - - 23.9 1013.7 0.0
20/05:30am NW 2 3 - - - - - - - 24.4 1013.3 0.0
20/05:00am WNW 3 5 - - - - - - - 24.9 1012.8 0.0
20/04:30am W 2 4 - - - - - - - 25.1 1012.4 0.0
20/04:00am WNW 3 7 - - - - - - - 25.2 1012.4 0.0
20/03:30am W 3 7 - - - - - - - 25.1 1012.5 0.0
20/03:00am WNW 2 4 - - - - - - - 25.2 1012.4 0.0
20/02:30am W 3 6 - - - - - - - 25.3 1012.5 0.0
20/02:00am WNW 4 7 - - - - - - - 25.6 1012.5 0.0
20/01:30am WNW 3 6 - - - - - - - 25.5 1012.9 0.0
20/01:00am WNW 3 5 - - - - - - - 25.6 1013.1 0.0
20/12:30am WNW 3 6 - - - - - - - 25.7 1013.5 0.0
20/12:00am WNW 3 6 - - - - - - - 25.7 1014.0 0.0
 
Date/Time
CST
Wind Sea
Height
m
Swell Vis
km
Cloud Weather Temp
°C
Press
hPa
Rain since
9am
mm
Dir  Spd
kts
Gust
kts
Height
m
Period
s
Dir
19/11:30pm NW 3 6 - - - - - - - 26.0 1014.1 0.0
19/11:00pm WNW 4 7 - - - - - - - 26.1 1014.3 0.0
19/10:30pm WNW 5 9 - - - - - - - 26.1 1014.0 0.0
19/10:00pm W 5 9 - - - - - - - 26.2 1013.7 0.0
19/09:30pm W 5 9 - - - - - - - 26.3 1013.4 0.0
19/09:00pm WNW 4 7 - - - - - - - 26.3 1013.2 0.0
19/08:30pm WNW 3 7 - - - - - - - 26.2 1012.9 0.0
19/08:00pm WNW 3 5 - - - - - - - 26.0 1012.7 0.0
19/07:30pm WNW 2 4 - - - - - - - 25.7 1012.3 0.0
19/07:00pm WNW 1 3 - - - - - - - 26.1 1012.0 0.0
19/06:30pm WNW 1 4 - - - - - - - 26.9 1011.7 0.0
19/06:00pm NNW 3 6 - - - - - - - 28.1 1011.6 0.0
19/05:30pm WNW 4 7 - - - - - - - 28.7 1011.4 0.0
19/05:00pm WNW 3 6 - - - - - - - 29.2 1011.3 0.0
19/04:30pm WNW 5 7 - - - - - - - 29.2 1011.2 0.0
19/04:00pm WNW 5 8 - - - - - - - 29.7 1011.1 0.0
19/03:30pm WNW 5 9 - - - - - - - 29.3 1011.2 0.0
19/03:00pm W 6 10 - - - - - - - 29.4 1011.5 0.0
19/02:30pm W 7 11 - - - - - - - 29.7 1011.7 0.0
19/02:00pm WNW 6 10 - - - - - - - 29.4 1012.2 0.0
19/01:30pm W 5 11 - - - - - - - 30.0 1012.6 0.0
19/01:00pm WNW 5 10 - - - - - - - 29.1 1013.0 0.0
19/12:30pm WSW 6 10 - - - - - - - 28.9 1013.9 0.0
19/12:00pm W 7 9 - - - - - - - 28.2 1014.5 0.0
19/11:30am WSW 6 8 - - - - - - - 28.4 1014.9 0.0
19/11:00am W 4 7 - - - - - - - 27.7 1015.4 0.0
19/10:30am WSW 5 8 - - - - - - - 27.8 1015.7 0.0
19/10:00am SSW 3 5 - - - - - - - 28.7 1016.0 0.0
19/09:30am SSW 2 5 - - - - - - - 27.7 1016.2 0.0
19/09:00am SSE 2 3 - - - - - - - 27.0 1016.1 0.0
19/08:30am S 1 3 - - - - - - - 25.7 1015.9 0.0
19/08:00am CALM 0 1 - - - - - - - 24.3 1015.7 0.0
19/07:30am CALM 0 2 - - - - - - - 22.2 1015.5 0.0

Other formats

Comma delimited format used in spreadsheet applications
http://www.bom.gov.au/fwo/IDD60701/IDD60701.94116.axf

JavaScript Object Notation format (JSON) in row-major order
http://www.bom.gov.au/fwo/IDD60701/IDD60701.94116.json

Data quality

Most of these data are generated automatically and are frequently updated. Quality checks on data are not normally performed. It is possible for incorrect values to appear. Refer to information at About Latest Weather Observations and please check the disclaimer before using these data.